SCP
-0 -0 -0 -0 -0 -0 -0 -0 -0 -0 -0 -0 -0 -0 -0 -0 -0 -0 -0 -0 -0 -0 -0 -0 -0 -0 -0 0 0 -0 -0 -0 -0 -0 -0 -0 0 0 -0 -0 -0 -0 -0
-0 -0 -0 -0 -0 -0 -0 0 -0 -0 -0 -0 -0 -0 -0 -0 -0 -0 -0 -0 -0 -0 -0 -0 -0 -0 -0 -0 -0 -0 -0 -0 -0 -0 -0 -0 -0 -0 -0 -0 -0 -0 -0
-0 -0 -0 -0 -0 0 0 0 0 0 -0 -0 -0 -0 -0 -0 -0 -0 -0 -0 -0 -0 -0 -0 -0 -0 -0 -0 -0 -0 -0 -0 -0 -0 -0 -0 -0 -0 -0 -0 -0 -0 -0
-0 -0 -0 -0 0 0 0 0 0 0 0 0 0 -0 -0 -0 -0 -0 -0 -0 -0 -0 -0 -0 -0 -0 -0 -0 -0 -0 -0 -0 -0 -0 -0 -0 0 0 -0 0 -0 0 0
-0 0 -0 -0 -0 0 0 0 0 0 0 0 0 0 0 -0 -0 -0 -0 -0 -0 -0 -0 -0 -0 -0 -0 -0 -0 -0 -0 0 0 0 -0 0 0 0 0 0 0 0 0
0 0 -0 -0 -0 -0 0 0 0 0 0 0 0 0 -0 -0 -0 -0 -0 -0 -0 -0 -0 -0 -0 -0 -0 -0 -0 0 0 0 0 -0 0 0 0 0 0 0 0 0 0
-0 0 0 -0 -0 -0 0 0 0 0 0 0 0 0 -0 -0 -0 0 0 0 0 0 0 0 0 0 0 -0 -0 0 0 0 0 0 0 0 0 0 0 0 0 0 0
0 0 0 -0 -0 -0 0 0 0 0 0 0 0 0 0 0 0 0 -0 0 0 -0 0 0 0 0 0 0 0 0 0 0 0 0 0 0 0 1 0 0 0 0 0
-0 -0 -0 -0 -0 0 0 0 0 0 0 0 0 0 0 0 0 0 0 0 0 0 0 0 0 0 0 0 0 0 0 0 0 0 0 0 1 0 1 0 0 0 0
0 -0 -0 0 -0 -0 -0 -0 -0 -0 0 0 0 0 0 0 0 0 0 0 0 0 0 0 0 0 0 0 0 0 0 0 0 0 0 0 0 1 0 0 0 0 0
0 -0 0 0 -0 -0 -0 -0 -0 -0 -0 -0 -0 -0 0 0 0 0 0 0 0 1 1 0 0 0 0 0 0 1 1 0 0 0 -0 0 0 1 0 0 0 0 0
0 0 0 0 0 0 0 0 0 0 0 -0 -0 0 0 0 0 0 1 2 1 1 1 1 1 1 1 1 0 0 0 0 0 0 0 -0 0 -0 0 -0 0 0 1
0 0 0 0 0 0 0 0 0 -0 0 0 0 0 0 0 0 0 0 0 0 0 0 1 0 0 0 0 0 -0 0 0 0 0 0 0 0 0 -0 -0 0 0 1
0 0 0 0 0 0 0 0 0 0 0 0 0 0 0 0 0 0 0 0 0 0 0 0 0 0 0 0 0 0 0 0 0 0 0 0 0 0 -0 0 0 1 1
0 0 0 0 0 0 0 0 0 0 0 0 0 0 0 0 0 0 0 0 0 0 0 0 0 0 0 0 0 0 -0 0 0 0 0 0 0 0 0 0 0 0 0
0 0 0 0 0 0 0 0 0 0 0 0 0 0 0 0 0 0 0 0 0 0 0 0 0 0 0 0 0 0 0 0 -0 0 0 0 0 -0 -0 1 1 0 0
0 0 0 0 0 0 0 0 0 0 0 0 0 0 0 0 0 0 0 0 0 0 0 0 0 0 0 0 0 0 0 0 0 0 0 0 0 0 0 2 1 1 1
0 0 0 0 0 0 0 0 0 0 0 0 0 0 0 0 0 0 0 0 0 0 0 0 0 0 0 0 0 0 0 0 0 0 0 0 0 1 1 2 2 1 1
0 0 0 0 0 0 0 0 0 0 0 0 0 0 0 0 0 0 0 0 0 0 0 0 0 0 0 0 0 0 0 0 0 0 0 0 0 0 1 1 1 1 0
0 0 0 0 0 0 0 1 1 0 0 0 0 0 0 0 0 0 0 0 0 0 0 0 0 0 0 0 0 0 0 0 0 0 0 0 0 -0 -0 0 -0 0 0
0 0 0 0 0 0 1 1 0 0 0 0 0 0 0 0 0 0 0 0 0 0 0 0 0 0 0 0 0 0 0 0 0 0 0 0 0 1 0 -0 -0 -0 0
0 0 0 0 0 0 0 0 0 0 0 0 0 0 0 0 0 0 0 0 0 0 0 0 0 0 0 0 0 0 0 0 0 0 0 0 0 0 0 0 0 0 -0
0 0 0 0 0 0 0 0 0 0 0 0 0 0 0 0 0 0 0 0 0 0 0 0 0 0 0 -0 0 0 0 0 0 0 -0 -0 0 0 0 0 0 0 0
0 0 0 0 0 0 0 0 0 0 0 0 0 0 0 0 0 0 0 0 0 0 0 0 0 0 0 0 -0 0 0 0 0 0 -0 0 0 0 0 0 0 0 0
0 -0 0 0 0 0 0 0 0 0 0 0 0 0 0 0 0 0 0 0 0 0 0 0 0 0 0 0 0 -0 -0 0 0 0 0 0 0 0 0 0 -0 -0 0
0 0 0 0 0 0 0 0 0 0 0 0 0 0 0 0 0 0 0 0 0 0 0 0 0 0 0 0 0 0 0 0 0 0 0 0 -0 0 0 0 0 0 0
Wind_Speed_500mb
26 24 22 26 27 27 27 26 25 24 24 24 24 26 26 26 26 25 25 24 22 21 20 19 20 21 22 22 23 25 26 27 29 31 34 32 30 30 29 30 29 29 30
22 21 21 23 24 25 24 23 22 20 19 19 19 20 20 20 20 20 19 18 18 16 15 15 15 14 13 13 14 17 20 22 22 21 21 25 25 24 26 25 24 25 27
20 21 20 21 21 22 22 20 18 15 15 15 15 16 16 15 15 14 13 13 12 12 12 11 11 10 11 10 7 7 10 10 8 9 14 12 13 20 19 20 17 19 22
19 19 17 19 19 19 18 17 15 13 12 12 11 11 12 12 13 13 13 12 12 11 11 11 13 13 12 11 11 9 3 6 5 2 10 14 5 7 10 15 14 12 14
22 19 12 16 18 17 15 13 12 9 7 7 8 10 11 12 14 16 17 17 18 18 18 18 18 17 17 17 14 13 11 5 4 10 5 7 6 9 6 11 9 9 7
9 13 12 13 13 13 12 9 8 4 4 6 9 13 16 17 19 21 23 25 26 26 26 25 24 24 24 23 20 17 15 13 8 13 3 16 24 19 14 16 12 6 4
13 15 15 13 12 11 8 7 5 7 9 13 15 17 20 23 25 25 26 27 28 29 30 31 30 30 29 28 26 23 20 17 15 11 12 7 19 28 22 18 15 14 8
31 27 25 21 16 13 12 11 10 9 12 14 19 20 24 24 23 20 18 22 23 26 29 32 34 34 33 33 32 29 26 23 22 17 16 21 17 36 31 27 20 19 20
24 30 36 33 27 26 22 19 16 18 20 23 25 25 30 27 25 30 28 23 25 28 33 35 34 35 38 36 33 30 29 29 28 24 25 24 19 33 37 23 22 24 26
22 15 22 23 25 23 26 28 22 21 22 24 22 24 24 31 25 26 31 28 29 37 40 36 30 29 30 33 33 31 31 34 33 33 33 19 25 34 32 23 26 28 29
20 18 17 18 25 21 24 23 18 19 18 15 22 25 15 22 25 26 22 22 23 32 30 24 31 32 32 35 36 36 38 38 34 33 35 30 26 31 38 28 30 30 29
36 34 36 29 22 10 15 16 14 21 15 18 21 21 14 10 11 16 19 20 25 25 23 28 29 25 30 32 33 30 36 33 21 37 42 37 24 20 37 32 32 26 25
28 23 36 35 35 32 26 26 27 25 22 15 21 25 19 20 23 17 19 20 21 26 27 26 26 25 30 34 38 38 32 30 31 29 49 52 57 47 38 35 33 31 29
12 18 26 27 28 26 26 24 16 14 3 7 15 23 31 37 38 32 28 16 21 30 36 37 36 34 36 35 37 32 28 26 25 28 40 52 55 50 42 34 36 32 33
32 28 14 28 30 31 21 19 19 7 4 4 17 26 32 40 42 43 38 16 21 29 32 36 37 38 33 36 31 27 33 26 25 33 32 38 40 67 49 33 34 34 33
28 22 17 26 27 22 14 13 9 3 7 11 13 21 33 35 35 34 37 24 24 31 34 37 35 32 38 36 36 33 31 30 29 26 19 23 27 27 40 32 36 31 37
27 15 9 9 12 4 3 3 6 8 16 17 15 17 32 34 32 32 26 28 26 36 44 35 36 51 42 44 47 43 35 36 38 37 30 22 13 15 31 33 37 42 36
33 30 15 7 6 6 9 11 16 19 11 16 22 23 15 31 35 42 47 47 37 40 42 40 43 45 45 49 65 60 47 41 41 41 43 38 28 25 31 34 35 42 39
37 36 31 15 7 16 20 22 17 13 15 23 25 28 38 48 49 40 40 45 51 48 48 31 29 35 44 49 51 63 52 42 40 39 40 38 43 44 28 33 31 36 39
37 25 22 17 16 27 33 23 12 17 26 31 33 45 49 44 51 52 47 41 43 49 52 46 43 44 50 51 47 47 61 47 40 33 32 30 30 42 51 53 51 41 47
30 14 16 24 28 25 18 19 26 29 36 42 42 31 32 34 27 30 35 38 40 42 43 47 61 66 50 58 58 59 50 50 48 41 40 33 38 43 43 56 51 49 48
22 15 19 15 24 30 27 29 35 38 36 35 41 39 35 35 41 46 45 45 51 56 58 57 38 41 42 44 49 51 51 55 48 45 39 37 37 33 40 45 42 45 43
41 36 29 26 26 27 31 38 42 46 55 48 47 51 46 58 66 71 60 45 39 38 37 36 41 54 60 61 57 37 34 23 39 45 35 36 28 28 36 44 38 38 34
21 15 21 2 19 30 40 39 41 48 51 57 54 54 66 61 60 33 48 43 29 31 42 51 52 55 58 61 68 58 43 43 44 41 50 53 56 35 35 29 32 35 37
6 10 5 9 12 20 31 39 45 48 51 51 59 66 67 68 64 51 50 50 52 50 53 56 58 55 51 49 51 62 64 51 45 43 57 39 30 26 29 29 31 29 29
27 18 8 6 21 33 34 36 42 42 51 56 57 60 62 63 62 60 42 43 45 51 51 42 47 45 43 40 40 36 41 45 48 39 41 47 37 31 28 33 35 33 24
Wind_Direction_500mb
114 120 125 121 119 113 106 100 92 83 76 72 69 68 66 65 63 60 60 61 60 57 56 59 59 58 59 60 64 69 73 75 73 75 73 67 63 51 62 68 74 77 77
115 129 132 124 119 112 105 99 95 90 83 76 73 69 66 63 59 56 54 53 51 45 42 37 34 38 50 61 61 62 67 72 72 74 65 62 64 63 43 57 66 73 77
128 135 135 125 118 112 109 105 99 90 81 73 64 58 53 51 49 46 41 38 33 27 17 11 11 11 8 9 32 78 90 88 68 47 30 22 65 63 46 29 52 66 73
92 129 128 124 122 121 118 113 103 88 71 57 46 43 36 28 20 13 6 1 358 353 344 338 336 335 334 336 338 339 0 147 191 344 31 344 175 8 45 10 25 42 61
107 105 119 136 136 132 123 114 102 87 72 52 29 19 11 3 357 350 344 339 334 331 328 326 324 322 321 321 319 317 315 313 220 139 22 1 266 242 335 328 2 38 61
121 149 131 145 136 133 125 115 98 80 37 14 358 355 355 350 346 343 338 334 329 325 320 318 317 318 316 313 310 309 309 306 268 208 300 358 277 254 297 317 312 323 42
90 133 116 135 125 112 105 87 61 19 3 2 355 353 349 347 346 342 341 338 328 321 316 313 313 313 313 310 307 304 301 300 296 286 231 262 286 257 270 289 313 288 260
76 88 89 87 83 80 72 57 44 27 20 17 18 13 17 7 354 349 348 348 343 331 325 320 316 311 309 309 307 305 305 311 309 305 298 279 308 244 252 270 288 284 260
88 86 94 90 82 80 77 62 53 50 48 46 34 32 23 12 4 349 336 345 344 329 330 322 317 313 311 311 308 307 312 312 307 296 280 279 296 255 244 261 289 284 261
113 107 109 88 94 88 74 62 57 43 35 24 24 20 26 6 348 3 349 330 339 333 335 335 330 325 322 318 311 302 296 291 287 283 289 267 256 256 242 271 288 289 263
123 93 146 109 102 107 72 58 52 56 45 46 21 9 21 6 10 9 358 353 359 360 351 342 347 343 333 331 306 308 292 285 281 283 285 271 292 254 242 268 303 278 261
137 117 118 133 118 108 66 46 85 65 88 39 15 354 12 32 5 339 343 24 356 354 11 353 350 347 359 347 339 325 302 288 288 269 273 306 304 325 261 267 298 274 252
165 180 156 140 133 134 114 105 99 84 68 21 339 349 349 343 311 326 303 349 315 318 324 326 321 330 351 346 344 340 316 314 289 277 255 260 277 272 235 262 290 274 255
137 164 160 170 171 161 148 154 161 164 166 342 344 333 324 327 330 332 332 324 332 318 301 302 301 305 319 333 338 346 325 328 306 313 274 270 247 235 246 267 287 273 249
161 164 145 144 154 155 162 168 166 129 113 30 349 331 317 312 325 326 330 308 310 319 314 307 304 309 325 326 323 342 351 338 320 331 270 283 243 243 237 273 288 274 254
170 179 169 154 149 157 157 141 132 166 253 282 285 337 329 324 317 307 310 321 288 303 316 306 308 310 324 313 313 317 314 336 346 332 290 254 263 267 250 278 288 287 264
175 185 190 137 156 160 132 222 250 276 298 329 340 315 314 312 307 296 285 295 289 291 294 300 292 307 295 302 307 313 308 304 302 316 311 245 258 305 280 265 286 272 268
181 166 195 173 190 252 280 311 332 329 336 343 330 310 301 319 319 305 294 288 279 282 283 293 301 295 292 298 304 304 307 305 307 299 292 289 272 279 272 272 267 269 264
203 181 164 169 244 284 300 312 325 330 332 302 285 288 301 305 304 302 285 276 279 280 276 272 279 306 305 303 298 299 298 290 298 300 305 296 280 284 274 284 279 258 251
182 186 211 241 274 301 299 316 313 292 282 278 289 300 302 297 296 295 290 285 278 278 278 270 272 289 302 304 298 290 293 286 287 303 305 307 291 284 281 294 284 281 270
181 174 270 299 321 296 287 274 292 284 278 282 296 299 306 303 312 316 314 304 295 291 288 282 287 299 294 287 295 290 291 281 271 287 293 307 291 284 290 286 293 298 301
206 205 194 246 268 245 254 269 293 296 301 295 294 292 293 301 306 310 303 298 298 301 301 300 299 291 292 297 307 309 306 291 274 276 286 288 307 312 293 292 305 305 301
192 184 201 301 245 252 282 301 300 309 322 326 321 318 313 304 305 307 307 306 303 297 294 293 291 297 299 297 294 301 301 291 303 279 277 308 308 318 307 299 293 294 280
178 222 292 258 286 304 310 314 333 331 328 324 323 318 318 319 316 296 313 315 316 301 294 297 298 299 297 295 295 288 285 287 296 296 271 288 297 306 303 321 290 282 283
14 127 72 332 314 323 326 328 326 321 317 319 318 319 317 323 325 313 304 303 298 302 297 293 293 294 298 300 293 291 284 284 288 280 285 278 272 297 312 306 311 315 298
135 139 125 22 340 328 330 324 319 323 321 323 320 318 320 320 319 315 302 295 297 298 298 303 302 298 298 300 302 306 300 289 284 283 278 283 291 287 296 311 289 294 314
Wind_Speed_850mb
26 24 22 26 27 27 27 26 25 24 24 24 24 26 26 26 26 25 25 24 22 21 20 19 20 21 22 22 23 25 26 27 29 31 34 32 30 30 29 30 29 29 30
22 21 21 23 24 25 24 23 22 20 19 19 19 20 20 20 20 20 19 18 18 16 15 15 15 14 13 13 14 17 20 22 22 21 21 25 25 24 26 25 24 25 27
20 21 20 21 21 22 22 20 18 15 15 15 15 16 16 15 15 14 13 13 12 12 12 11 11 10 11 10 7 7 10 10 8 9 14 12 13 20 19 20 17 19 22
19 19 17 19 19 19 18 17 15 13 12 12 11 11 12 12 13 13 13 12 12 11 11 11 13 13 12 11 11 9 3 6 5 2 10 14 5 7 10 15 14 12 14
22 19 12 16 18 17 15 13 12 9 7 7 8 10 11 12 14 16 17 17 18 18 18 18 18 17 17 17 14 13 11 5 4 10 5 7 6 9 6 11 9 9 7
9 13 12 13 13 13 12 9 8 4 4 6 9 13 16 17 19 21 23 25 26 26 26 25 24 24 24 23 20 17 15 13 8 13 3 16 24 19 14 16 12 6 4
13 15 15 13 12 11 8 7 5 7 9 13 15 17 20 23 25 25 26 27 28 29 30 31 30 30 29 28 26 23 20 17 15 11 12 7 19 28 22 18 15 14 8
31 27 25 21 16 13 12 11 10 9 12 14 19 20 24 24 23 20 18 22 23 26 29 32 34 34 33 33 32 29 26 23 22 17 16 21 17 36 31 27 20 19 20
24 30 36 33 27 26 22 19 16 18 20 23 25 25 30 27 25 30 28 23 25 28 33 35 34 35 38 36 33 30 29 29 28 24 25 24 19 33 37 23 22 24 26
22 15 22 23 25 23 26 28 22 21 22 24 22 24 24 31 25 26 31 28 29 37 40 36 30 29 30 33 33 31 31 34 33 33 33 19 25 34 32 23 26 28 29
20 18 17 18 25 21 24 23 18 19 18 15 22 25 15 22 25 26 22 22 23 32 30 24 31 32 32 35 36 36 38 38 34 33 35 30 26 31 38 28 30 30 29
36 34 36 29 22 10 15 16 14 21 15 18 21 21 14 10 11 16 19 20 25 25 23 28 29 25 30 32 33 30 36 33 21 37 42 37 24 20 37 32 32 26 25
28 23 36 35 35 32 26 26 27 25 22 15 21 25 19 20 23 17 19 20 21 26 27 26 26 25 30 34 38 38 32 30 31 29 49 52 57 47 38 35 33 31 29
12 18 26 27 28 26 26 24 16 14 3 7 15 23 31 37 38 32 28 16 21 30 36 37 36 34 36 35 37 32 28 26 25 28 40 52 55 50 42 34 36 32 33
32 28 14 28 30 31 21 19 19 7 4 4 17 26 32 40 42 43 38 16 21 29 32 36 37 38 33 36 31 27 33 26 25 33 32 38 40 67 49 33 34 34 33
28 22 17 26 27 22 14 13 9 3 7 11 13 21 33 35 35 34 37 24 24 31 34 37 35 32 38 36 36 33 31 30 29 26 19 23 27 27 40 32 36 31 37
27 15 9 9 12 4 3 3 6 8 16 17 15 17 32 34 32 32 26 28 26 36 44 35 36 51 42 44 47 43 35 36 38 37 30 22 13 15 31 33 37 42 36
33 30 15 7 6 6 9 11 16 19 11 16 22 23 15 31 35 42 47 47 37 40 42 40 43 45 45 49 65 60 47 41 41 41 43 38 28 25 31 34 35 42 39
37 36 31 15 7 16 20 22 17 13 15 23 25 28 38 48 49 40 40 45 51 48 48 31 29 35 44 49 51 63 52 42 40 39 40 38 43 44 28 33 31 36 39
37 25 22 17 16 27 33 23 12 17 26 31 33 45 49 44 51 52 47 41 43 49 52 46 43 44 50 51 47 47 61 47 40 33 32 30 30 42 51 53 51 41 47
30 14 16 24 28 25 18 19 26 29 36 42 42 31 32 34 27 30 35 38 40 42 43 47 61 66 50 58 58 59 50 50 48 41 40 33 38 43 43 56 51 49 48
22 15 19 15 24 30 27 29 35 38 36 35 41 39 35 35 41 46 45 45 51 56 58 57 38 41 42 44 49 51 51 55 48 45 39 37 37 33 40 45 42 45 43
41 36 29 26 26 27 31 38 42 46 55 48 47 51 46 58 66 71 60 45 39 38 37 36 41 54 60 61 57 37 34 23 39 45 35 36 28 28 36 44 38 38 34
21 15 21 2 19 30 40 39 41 48 51 57 54 54 66 61 60 33 48 43 29 31 42 51 52 55 58 61 68 58 43 43 44 41 50 53 56 35 35 29 32 35 37
6 10 5 9 12 20 31 39 45 48 51 51 59 66 67 68 64 51 50 50 52 50 53 56 58 55 51 49 51 62 64 51 45 43 57 39 30 26 29 29 31 29 29
27 18 8 6 21 33 34 36 42 42 51 56 57 60 62 63 62 60 42 43 45 51 51 42 47 45 43 40 40 36 41 45 48 39 41 47 37 31 28 33 35 33 24
Wind_Direction_850mb
114 120 125 121 119 113 106 100 92 83 76 72 69 68 66 65 63 60 60 61 60 57 56 59 59 58 59 60 64 69 73 75 73 75 73 67 63 51 62 68 74 77 77
115 129 132 124 119 112 105 99 95 90 83 76 73 69 66 63 59 56 54 53 51 45 42 37 34 38 50 61 61 62 67 72 72 74 65 62 64 63 43 57 66 73 77
128 135 135 125 118 112 109 105 99 90 81 73 64 58 53 51 49 46 41 38 33 27 17 11 11 11 8 9 32 78 90 88 68 47 30 22 65 63 46 29 52 66 73
92 129 128 124 122 121 118 113 103 88 71 57 46 43 36 28 20 13 6 1 358 353 344 338 336 335 334 336 338 339 0 147 191 344 31 344 175 8 45 10 25 42 61
107 105 119 136 136 132 123 114 102 87 72 52 29 19 11 3 357 350 344 339 334 331 328 326 324 322 321 321 319 317 315 313 220 139 22 1 266 242 335 328 2 38 61
121 149 131 145 136 133 125 115 98 80 37 14 358 355 355 350 346 343 338 334 329 325 320 318 317 318 316 313 310 309 309 306 268 208 300 358 277 254 297 317 312 323 42
90 133 116 135 125 112 105 87 61 19 3 2 355 353 349 347 346 342 341 338 328 321 316 313 313 313 313 310 307 304 301 300 296 286 231 262 286 257 270 289 313 288 260
76 88 89 87 83 80 72 57 44 27 20 17 18 13 17 7 354 349 348 348 343 331 325 320 316 311 309 309 307 305 305 311 309 305 298 279 308 244 252 270 288 284 260
88 86 94 90 82 80 77 62 53 50 48 46 34 32 23 12 4 349 336 345 344 329 330 322 317 313 311 311 308 307 312 312 307 296 280 279 296 255 244 261 289 284 261
113 107 109 88 94 88 74 62 57 43 35 24 24 20 26 6 348 3 349 330 339 333 335 335 330 325 322 318 311 302 296 291 287 283 289 267 256 256 242 271 288 289 263
123 93 146 109 102 107 72 58 52 56 45 46 21 9 21 6 10 9 358 353 359 360 351 342 347 343 333 331 306 308 292 285 281 283 285 271 292 254 242 268 303 278 261
137 117 118 133 118 108 66 46 85 65 88 39 15 354 12 32 5 339 343 24 356 354 11 353 350 347 359 347 339 325 302 288 288 269 273 306 304 325 261 267 298 274 252
165 180 156 140 133 134 114 105 99 84 68 21 339 349 349 343 311 326 303 349 315 318 324 326 321 330 351 346 344 340 316 314 289 277 255 260 277 272 235 262 290 274 255
137 164 160 170 171 161 148 154 161 164 166 342 344 333 324 327 330 332 332 324 332 318 301 302 301 305 319 333 338 346 325 328 306 313 274 270 247 235 246 267 287 273 249
161 164 145 144 154 155 162 168 166 129 113 30 349 331 317 312 325 326 330 308 310 319 314 307 304 309 325 326 323 342 351 338 320 331 270 283 243 243 237 273 288 274 254
170 179 169 154 149 157 157 141 132 166 253 282 285 337 329 324 317 307 310 321 288 303 316 306 308 310 324 313 313 317 314 336 346 332 290 254 263 267 250 278 288 287 264
175 185 190 137 156 160 132 222 250 276 298 329 340 315 314 312 307 296 285 295 289 291 294 300 292 307 295 302 307 313 308 304 302 316 311 245 258 305 280 265 286 272 268
181 166 195 173 190 252 280 311 332 329 336 343 330 310 301 319 319 305 294 288 279 282 283 293 301 295 292 298 304 304 307 305 307 299 292 289 272 279 272 272 267 269 264
203 181 164 169 244 284 300 312 325 330 332 302 285 288 301 305 304 302 285 276 279 280 276 272 279 306 305 303 298 299 298 290 298 300 305 296 280 284 274 284 279 258 251
182 186 211 241 274 301 299 316 313 292 282 278 289 300 302 297 296 295 290 285 278 278 278 270 272 289 302 304 298 290 293 286 287 303 305 307 291 284 281 294 284 281 270
181 174 270 299 321 296 287 274 292 284 278 282 296 299 306 303 312 316 314 304 295 291 288 282 287 299 294 287 295 290 291 281 271 287 293 307 291 284 290 286 293 298 301
206 205 194 246 268 245 254 269 293 296 301 295 294 292 293 301 306 310 303 298 298 301 301 300 299 291 292 297 307 309 306 291 274 276 286 288 307 312 293 292 305 305 301
192 184 201 301 245 252 282 301 300 309 322 326 321 318 313 304 305 307 307 306 303 297 294 293 291 297 299 297 294 301 301 291 303 279 277 308 308 318 307 299 293 294 280
178 222 292 258 286 304 310 314 333 331 328 324 323 318 318 319 316 296 313 315 316 301 294 297 298 299 297 295 295 288 285 287 296 296 271 288 297 306 303 321 290 282 283
14 127 72 332 314 323 326 328 326 321 317 319 318 319 317 323 325 313 304 303 298 302 297 293 293 294 298 300 293 291 284 284 288 280 285 278 272 297 312 306 311 315 298
135 139 125 22 340 328 330 324 319 323 321 323 320 318 320 320 319 315 302 295 297 298 298 303 302 298 298 300 302 306 300 289 284 283 278 283 291 287 296 311 289 294 314